Simultaneous Nadir Overpasses (SNOs) Predictions

Prediction of SNOs between FY3D and AQUA Satellite Orbit:

Table of predicted SNOs for the next 14.0 days since TLE Epoch: 12/19/2020
Index Date (FY3D) Time (FY3D) Lat,Lon (FY3D) SZA (FY3D ) Date (AQUA) Time (AQUA) Lat,Lon (AQUA) SZA (AQUA ) Distance(km) Time Diff (sec)
1 12/20/2020 10:43:07 47.06,-127.96 144.49 12/20/2020 10:43:25 47.07,-128.12 144.54 12.42 18
2 12/20/2020 11:32:27 -52.06, 41.57 39.15 12/20/2020 11:31:30 -52.07, 41.59 39.05 1.78 57
3 12/23/2020 02:59:19 47.54, -11.84 144.33 12/23/2020 02:59:45 47.59, -12.05 144.37 16.44 26
4 12/23/2020 03:49:06 -50.99, 156.98 38.18 12/23/2020 03:48:17 -50.99, 156.99 38.08 0.34 49
5 12/25/2020 19:15:32 48.02, 104.29 144.13 12/25/2020 19:16:06 48.09, 104.03 144.16 20.69 34
6 12/25/2020 20:05:42 -50.14, -87.48 37.43 12/25/2020 20:05:01 -50.14, -87.50 37.33 1.58 41
7 12/28/2020 11:31:45 48.49,-139.59 143.87 12/28/2020 11:32:28 48.53,-139.92 143.94 24.64 43
8 12/28/2020 12:22:45 -47.75, 27.40 35.59 12/28/2020 12:22:11 -47.75, 27.40 35.50 0.36 34
9 12/31/2020 03:47:58 48.97, -23.46 143.55 12/31/2020 03:48:49 49.02, -23.84 143.62 28.44 51
10 12/31/2020 04:39:36 -46.03, 142.63 34.32 12/31/2020 04:39:09 -46.05, 142.63 34.26 1.76 27



Historial Predications of SNOs between FY3D and AQUA
